Starlink 35748

operational
NORAD ID: 66207 Int'l Des: 2025-244 Owner: SPXS Country: US Constellation: starlink
NOTLE

Über Starlink 35748

Beschreibung wird geladen...

Live-Position

3D-Globus wird geladen...

Nächste Überflüge

Höhenverlauf

Altitude vs Time

uPlot chart will show altitude changes over time

Zweizeiliger Elementsatz

1 66207C 25244A 25301.74006944 .02140000 00000+0 32174-2 0 3015
2 66207 53.1575 134.0819 0010575 275.0451 336.5446 16.01739254 17
Epoch: 28. Okt. 2025 • Age: 78 hours

Aktueller Status

Höhe 233.0 km
Geschwindigkeit 7.77 km/s
Subsatellitenpunkt -11.70°S, 15.02°W
Startdatum 28. Okt. 2025
Alter 3 days
Typ internet

Technische Details

Klassifizierung Payload
Masse 575.00 kg
Trockenmasse 530.00 kg
Gesamtmasse 575.00 kg
Länge 0.30 m
Durchmesser 4.10 m
Spannweite 29.00 m
Form Box + pan
Hersteller SPXS
Bus-Typ Starlink V2MO
Phasenstatus In Orbit
Besitzer/Staat SPXS/US

Große Konstellationen

Loading constellations...